Location: Banff
(51.1667°N, 115.5667°W)
Time: 13:45:20
(UTC+00:00)

Vanguard 1 Rocket - Pass Details

Date: 27 November 2020
Orbit: 655 x 4222 km, 34.3° (Epoch: 23 January)

Event Time Altitude Azimuth Distance (km) Brightness Sun altitude
Rises 07:10:17 0° 198° (SSW) 8,177 - -59.8°
Reaches altitude 10° 07:17:37 10° 186° (S) 7,364 - -60.0°
Maximum altitude 07:35:37 25° 143° (SE) 5,954 - -60.0°
Exits shadow 07:46:20 17° 109° (ESE) 5,972 11.4 -59.9°
Drops below altitude 10° 07:50:44 10° 98° (E) 6,243 11.6 -59.8°
Sets 07:56:02 0° 86° (E) 6,771 12.0 -59.6°
